Regional Weather Roundup
Issued by NWS Cleveland, OH

Home | Current Version | Previous Version | Text Only | Print | Product List | Glossary Off
Versions: 1 2 3 4 5 6 7 8 9 10 11 12 13 14 15 16 17 18 19 20 21 22 23 24 25 26 27 28 29 30 31 32 33 34 35 36 37 38 39 40 41 42 43 44 45 46 47 48 49 50

000
ASUS41 KCLE 290000
RWRCLE
OHIO REGIONAL WEATHER ROUNDUP
NATIONAL WEATHER SERVICE WILMINGTON, OH
800 PM EDT SUN AUG 28 2016

NOTE: "FAIR" INDICATES FEW OR NO CLOUDS BELOW 12,000 FEET WITH NO
SIGNIFICANT WEATHER AND/OR OBSTRUCTIONS TO VISIBILITY.

OHZ001>008-015>018-024>027-034-035-043-044-290100-
   NORTHWEST OHIO

CITY           SKY/WX    TMP DP  RH WIND       PRES   REMARKS
DEFIANCE       FAIR      76  70  82 SW3       30.16R
FINDLAY        FAIR      81  67  62 E8        30.14F
TOLEDO EXPRESS LGT RAIN  76  74  93 CALM      30.15F
TOLEDO EXEC    FAIR      79  72  79 CALM      30.15F
LIMA           LGT RAIN  73  71  93 SE8       30.16F
$$

OHZ009>014-019>023-028>033-038-089-290100-
   NORTHEAST OHIO

CITY           SKY/WX    TMP DP  RH WIND       PRES   REMARKS
CLE-HOPKINS    FAIR      81  71  71 N3        30.20R
CLE-LAKEFRONT  FAIR      80  74  81 CALM      30.17R
CUY CO. ARPT   MOCLDY    81  75  83 CALM      30.19R
LORAIN-ELYRIA  FAIR      73  68  84 S5        30.20R
ASHTABULA      FAIR      78  74  87 W5        30.20R
AKRON-CANTON   MOCLDY    73  65  75 S6        30.20R
WOOSTER        NOT AVBL
MANSFIELD      FAIR      78  66  66 N5        30.22R
YOUNGSTOWN     TSTM      75  69  81 SE17      30.15F
$$

OHZ042-051>053-060>062-070>072-077>081-290100-
  SOUTHWEST OHIO

CITY           SKY/WX    TMP DP  RH WIND       PRES   REMARKS
CINC-COVINGTON TSTM      72  70  93 E28       30.19R
CINC-LUNKEN    TSTM      71  32  23 S7G22     30.22R
HAMILTON       FAIR      82  68  62 CALM      30.16R THUNDER
DAYTON         NOT AVBL
WRIGHT-PAT AFB MOCLDY    84  75  73 NW14G26   30.16R HX  92
DAYTON GENERAL FAIR      78  65  63 MISG      30.17R
WILMINGTON     MOCLDY    76  66  71 SE6       30.18R
$$

OHZ036-037-039>041-045>050-054>059-063>069-073>076-082>088-290100-
  CENTRAL AND SOUTHEAST OHIO

CITY           SKY/WX    TMP DP  RH WIND       PRES   REMARKS
COLUMBUS       MOCLDY    72  66  81 S6        30.16S THUNDER
OSU AIRPORT    FAIR      80  65  59 SE6       30.17R
BOLTON FIELD   NOT AVBL
RICKENBACK AFB NOT AVBL
NEWARK         FAIR      79  74  84 CALM      30.17R
MARION         FAIR      78  70  76 NE9       30.20R
LANCASTER      FAIR      82  72  71 NW8       30.17R
ZANESVILLE     FAIR      82  68  62 NE8       30.17R
NEW PHILLY     FAIR      73  67  81 CALM      30.19F
$$




USA.gov is the U.S. government's official web portal to all federal, state and local government web resources and services.